ES8TJM-10 Weather Reports


time (UTC)temp
C
wind
direction
speed
KPH
gust
KPH
rain 1hr
cm
rain 24hr
cm
rain mn
cm
humidity
%
barometer
mb
20260506200903 6 44 20.9 25.7 0.00 0.00 0.00 43 1013.4
20260506200217 7 44 20.9 25.7 0.00 0.00 0.00 42 1013.3
20260506195403 7 40 20.9 24.1 0.00 0.00 0.00 42 1013.3
20260506194503 7 42 20.9 24.1 0.00 0.00 0.00 41 1013.4
20260506193603 7 43 20.9 25.7 0.00 0.00 0.00 41 1013.3
20260506192703 7 41 22.5 25.7 0.00 0.00 0.00 41 1013.3
20260506191803 7 33 20.9 25.7 0.00 0.00 0.00 40 1013.2
20260506190903 7 35 19.3 24.1 0.00 0.00 0.00 39 1013.4
20260506190004 7 34 17.7 24.1 0.00 0.00 0.00 38 1013.5
20260506185403 7 33 17.7 20.9 0.00 0.00 0.00 37 1013.5
20260506184503 7 29 17.7 20.9 0.00 0.00 0.00 37 1013.5
20260506183604 8 34 17.7 20.9 0.00 0.00 0.00 34 1013.5
20260506182703 8 29 17.7 22.5 0.00 0.00 0.00 32 1013.5
20260506181803 8 29 17.7 19.3 0.00 0.00 0.00 30 1013.4
20260506181116 8 42 17.7 19.3 0.00 0.00 0.00 30 1013.4
20260506180004 8 35 19.3 25.7 0.00 0.00 0.00 30 1013.3
20260506175403 8 33 19.3 25.7 0.00 0.00 0.00 29 1013.3
20260506174717 8 27 20.9 25.7 0.00 0.00 0.00 27 1013.3
20260506173603 8 27 17.7 24.1 0.00 0.00 0.00 26 1013.2
20260506172703 9 27 19.3 24.1 0.00 0.00 0.00 24 1013.3
20260506171803 9 32 17.7 22.5 0.00 0.00 0.00 24 1013.3
20260506170903 9 30 19.3 22.5 0.00 0.00 0.00 26 1013.4
20260506170004 9 23 17.7 24.1 0.00 0.00 0.00 28 1013.4
20260506165403 9 11 19.3 24.1 0.00 0.00 0.00 28 1013.4
20260506164504 10 17 16.1 22.5 0.00 0.00 0.00 29 1013.4
20260506163603 10 7 16.1 20.9 0.00 0.00 0.00 28 1013.5
20260506162703 10 360 19.3 27.4 0.00 0.00 0.00 27 1013.4
20260506161803 10 1 19.3 24.1 0.00 0.00 0.00 26 1013.3
20260506160903 10 360 20.9 27.4 0.00 0.00 0.00 26 1013.2
20260506160217 10 2 24.1 29.0 0.00 0.00 0.00 25 1013.3
20260506155403 10 6 19.3 24.1 0.00 0.00 0.00 27 1013.2
20260506154504 10 3 22.5 27.4 0.00 0.00 0.00 26 1013.3
20260506153603 10 3 20.9 25.7 0.00 0.00 0.00 25 1013.5
20260506152917 10 360 25.7 32.2 0.00 0.00 0.00 24 1013.4
20260506151803 11 356 20.9 24.1 0.00 0.00 0.00 22 1013.5
20260506150903 11 360 20.9 27.4 0.00 0.00 0.00 19 1013.4
20260506150217 11 3 22.5 27.4 0.00 0.00 0.00 19 1013.6
20260506145619 11 3 24.1 27.4 0.00 0.00 0.00 19 1013.6
20260506144504 11 6 19.3 25.7 0.00 0.00 0.00 19 1013.7
20260506143603 11 359 24.1 27.4 0.00 0.00 0.00 20 1013.7
20260506142919 11 348 22.5 29.0 0.00 0.00 0.00 21 1013.7
20260506141803 11 353 24.1 27.4 0.00 0.00 0.00 22 1013.9
20260506140904 11 327 22.5 27.4 0.00 0.00 0.00 22 1013.9
20260506140004 11 347 24.1 27.4 0.00 0.00 0.00 23 1014.2
20260506135403 11 344 22.5 27.4 0.00 0.00 0.00 22 1014.0
20260506134717 11 338 22.5 27.4 0.00 0.00 0.00 22 1014.1
20260506133603 11 341 22.5 25.7 0.00 0.00 0.00 24 1014.3
20260506132703 11 324 22.5 27.4 0.00 0.00 0.00 26 1014.5
20260506131804 11 350 22.5 29.0 0.00 0.00 0.00 26 1014.3
20260506130903 11 350 20.9 27.4 0.00 0.00 0.00 26 1014.2
20260506130004 11 340 17.7 30.6 0.00 0.00 0.00 27 1014.3
20260506125404 11 331 22.5 30.6 0.00 0.00 0.00 26 1014.3
20260506124504 11 348 22.5 27.4 0.00 0.00 0.00 25 1014.3
20260506123603 11 336 20.9 27.4 0.00 0.00 0.00 22 1014.4
20260506122703 12 331 19.3 24.1 0.00 0.00 0.00 21 1014.5
20260506122017 11 331 19.3 24.1 0.00 0.00 0.00 21 1014.5
20260506121119 11 332 19.3 24.1 0.00 0.00 0.00 21 1014.5
20260506120004 11 318 20.9 25.7 0.00 0.00 0.00 19 1014.4
20260506115404 11 333 17.7 24.1 0.00 0.00 0.00 19 1014.5
20260506114503 11 327 17.7 22.5 0.00 0.00 0.00 18 1014.5
20260506113603 11 347 20.9 25.7 0.00 0.00 0.00 17 1014.2
20260506112703 12 334 14.5 24.1 0.00 0.00 0.00 16 1014.2
20260506111803 11 342 16.1 24.1 0.00 0.00 0.00 17 1014.3
20260506110904 11 331 16.1 24.1 0.00 0.00 0.00 16 1014.4
20260506110004 12 333 14.5 24.1 0.00 0.00 0.00 15 1014.4
20260506105403 11 352 14.5 24.1 0.00 0.00 0.00 16 1014.3
20260506104719 11 347 12.9 22.5 0.00 0.00 0.00 17 1014.4
20260506103603 11 330 19.3 25.7 0.00 0.00 0.00 17 1014.4
20260506102703 11 342 19.3 27.4 0.00 0.00 0.00 17 1014.6
20260506101804 11 324 17.7 25.7 0.00 0.00 0.00 19 1014.5
20260506100904 11 331 19.3 24.1 0.00 0.00 0.00 19 1014.6
20260506100004 11 345 22.5 27.4 0.00 0.00 0.00 20 1014.6
20260506095403 11 327 17.7 27.4 0.00 0.00 0.00 20 1014.7
20260506094504 11 332 22.5 27.4 0.00 0.00 0.00 21 1014.6
20260506093603 11 325 19.3 24.1 0.00 0.00 0.00 22 1014.5
20260506092703 11 312 20.9 27.4 0.00 0.00 0.00 24 1014.6
20260506091803 11 344 17.7 25.7 0.00 0.00 0.00 26 1014.6
20260506091117 11 300 16.1 22.5 0.00 0.00 0.00 26 1014.5
20260506090004 11 340 16.1 22.5 0.00 0.00 0.00 27 1014.4
20260506085403 11 352 16.1 20.9 0.00 0.00 0.00 26 1014.5
20260506084718 11 327 14.5 20.9 0.00 0.00 0.00 24 1014.7
20260506083604 11 12 11.3 17.7 0.00 0.00 0.00 27 1014.6
20260506082703 11 320 11.3 17.7 0.00 0.00 0.00 29 1014.6
20260506081804 10 338 14.5 17.7 0.00 0.00 0.00 27 1014.5
20260506080903 10 15 14.5 17.7 0.00 0.00 0.00 27 1014.5
20260506072704 10 332 11.3 14.5 0.00 0.00 0.00 37 1014.3
20260506072017 9 345 11.3 14.5 0.00 0.00 0.00 36 1014.2
20260506071118 10 336 12.9 16.1 0.00 0.00 0.00 37 1014.1
20260506061803 9 59 8.0 12.9 0.00 0.00 0.00 62 1013.8
20260506060904 8 30 4.8 8.0 0.00 0.00 0.00 67 1013.9
20260506050904 7 349 4.8 6.4 0.00 0.00 0.00 77 1013.5
20260506050217 7 355 0.0 3.2 0.00 0.00 0.00 79 1013.5
20260506044503 5 0 0.0 0.0 0.00 0.00 0.00 83 1013.5
20260506043603 4 45 0.0 1.6 0.00 0.00 0.00 85 1013.5
20260506042917 3 0 0.0 0.0 0.00 0.00 0.00 86 1013.4
20260506041803 2 92 1.6 3.2 0.00 0.00 0.00 82 1013.2
20260506040903 1 133 1.6 1.6 0.00 0.00 0.00 85 1013.1
20260506040004 1 137 1.6 3.2 0.00 0.00 0.00 87 1013.0
20260506035618 1 150 1.6 3.2 0.00 0.00 0.00 87 1013.0
20260506034503 0 180 1.6 3.2 0.00 0.00 0.00 89 1012.9
20260506033817 0 180 1.6 3.2 0.00 0.00 0.00 90 1012.8
20260506032703 0 164 0.0 3.2 0.00 0.00 0.00 90 1012.5
20260506031803 0 84 3.2 4.8 0.00 0.00 0.00 90 1012.5
20260506030903 -1 71 3.2 4.8 0.00 0.00 0.00 89 1012.4
20260506030004 -1 41 1.6 3.2 0.00 0.00 0.00 90 1012.4
20260506025618 -1 25 1.6 3.2 0.00 0.00 0.00 90 1012.2
20260506024503 -2 40 3.2 3.2 0.00 0.00 0.00 85 1012.2
20260506023603 -2 33 1.6 3.2 0.00 0.00 0.00 85 1012.2
20260506022703 -2 44 1.6 3.2 0.00 0.00 0.00 89 1012.2
20260506022017 -1 45 0.0 3.2 0.00 0.00 0.00 89 1012.1
20260506020903 -1 208 4.8 6.4 0.00 0.00 0.00 89 1011.9
20260506020004 -1 249 6.4 8.0 0.00 0.00 0.00 89 1011.8
20260506015403 -2 236 6.4 8.0 0.00 0.00 0.00 84 1011.8
20260506014503 -2 219 4.8 6.4 0.00 0.00 0.00 84 1011.8
20260506013603 -2 181 3.2 4.8 0.00 0.00 0.00 88 1011.7
20260506012704 -2 0 0.0 0.0 0.00 0.00 0.00 84 1011.7
20260506012017 -2 0 0.0 0.0 0.00 0.00 0.00 84 1011.6
20260506010903 -2 90 3.2 4.8 0.00 0.00 0.00 88 1011.5
20260506010003 -1 71 4.8 4.8 0.00 0.00 0.00 88 1011.5
20260506005403 -1 50 4.8 4.8 0.00 0.00 0.00 88 1011.3
20260506004504 -1 90 0.0 3.2 0.00 0.00 0.00 87 1011.4
20260506003818 -1 90 0.0 1.6 0.00 0.00 0.00 87 1011.2
20260506002917 -1 66 3.2 4.8 0.00 0.00 0.00 87 1011.1
20260506001803 -1 180 0.0 1.6 0.00 0.00 0.00 86 1011.2
20260506001118 -1 180 1.6 3.2 0.00 0.00 0.00 86 1011.0
20260506000004 -1 93 1.6 3.2 0.00 0.00 0.00 85 1010.9
20260505235403 -1 84 3.2 4.8 0.00 0.00 0.00 85 1011.0
20260505234503 0 53 4.8 6.4 0.00 0.00 0.00 84 1010.8
20260505233603 0 225 1.6 3.2 0.00 0.00 0.00 83 1010.9
20260505232703 0 0 0.0 0.0 0.00 0.00 0.00 82 1010.8
20260505231803 0 0 0.0 0.0 0.00 0.00 0.00 82 1010.8
20260505230903 0 0 0.0 0.0 0.00 0.00 0.00 81 1010.9
20260505230004 0 0 0.0 0.0 0.00 0.00 0.00 80 1010.9
20260505225403 0 225 0.0 3.2 0.00 0.00 0.00 79 1010.9
20260505224718 0 258 3.2 3.2 0.00 0.00 0.00 79 1010.8
20260505223603 0 284 3.2 4.8 0.00 0.03 0.00 79 1010.9
20260505222704 0 315 3.2 4.8 0.00 0.03 0.00 79 1010.8
20260505221803 1 315 3.2 4.8 0.00 0.03 0.00 79 1010.8
20260505220903 1 315 4.8 4.8 0.00 0.03 0.00 78 1010.8
20260505220218 1 315 4.8 4.8 0.00 0.03 0.00 77 1010.8
20260505215403 1 315 1.6 3.2 0.00 0.03 0.00 77 1010.7
20260505214503 2 284 4.8 6.4 0.00 0.03 0.00 76 1010.6
20260505213603 2 270 4.8 6.4 0.00 0.03 0.00 75 1010.5
20260505212703 2 270 3.2 4.8 0.00 0.03 0.00 72 1010.4
20260505211804 2 306 1.6 3.2 0.00 0.03 0.00 68 1010.5
20260505210903 2 315 3.2 4.8 0.00 0.03 0.00 67 1010.4
20260505210005 2 315 4.8 6.4 0.00 0.03 0.00 66 1010.5
20260505205403 2 315 3.2 4.8 0.00 0.03 0.03 65 1010.4
20260505204503 2 315 3.2 4.8 0.00 0.03 0.03 65 1010.3
20260505203603 2 324 3.2 3.2 0.00 0.03 0.03 65 1010.2
20260505202703 2 340 3.2 3.2 0.00 0.03 0.03 64 1010.2
20260505201803 2 315 3.2 4.8 0.00 0.03 0.03 60 1010.1